N744JN KTEB-KOPF

Flight info

Callsign N744JN
Flight time 2h 27m
Altitude 42000
Route KTEB ELVAE COL WHITE Q409 CRPLR PAACK Q97 PRMUS CUUDA3 KOPF
Aircraft GLF6/M-SDE2E3FGHIRWY/LB1

Departure

Time 2026-05-09 01:33
Airport Teterboro Airport (KTEB)

Arrival

Time 2026-05-09 04:00
Airport Miami-Opa Locka Executive Airport (KOPF)
Time Latitude Longitude Altitude Speed Heading
2026-05-09 01:10 40.85566 -74.06304 7 ft 0 kts 308°
2026-05-09 01:22 40.85566 -74.06306 7 ft 1 kts 297°
2026-05-09 01:22 40.85544 -74.06291 9 ft 7 kts 140°
2026-05-09 01:22 40.85513 -74.06294 11 ft 0 kts 213°
2026-05-09 01:26 40.85508 -74.06287 11 ft 3 kts 127°
2026-05-09 01:26 40.85537 -74.06265 10 ft 7 kts 28°
2026-05-09 01:26 40.85584 -74.06219 6 ft 10 kts 38°
2026-05-09 01:26 40.85572 -74.06140 7 ft 11 kts 131°
2026-05-09 01:27 40.85519 -74.06073 9 ft 10 kts 154°
2026-05-09 01:27 40.85436 -74.06067 8 ft 15 kts 183°
2026-05-09 01:27 40.85320 -74.06075 7 ft 18 kts 184°
2026-05-09 01:27 40.85190 -74.06086 9 ft 20 kts 183°
2026-05-09 01:28 40.85055 -74.06095 7 ft 20 kts 182°
2026-05-09 01:28 40.84909 -74.06105 8 ft 22 kts 183°
2026-05-09 01:28 40.84755 -74.06118 9 ft 22 kts 183°
2026-05-09 01:28 40.84622 -74.06127 8 ft 18 kts 183°
2026-05-09 01:29 40.84501 -74.06136 8 ft 18 kts 183°
2026-05-09 01:29 40.84370 -74.06146 8 ft 19 kts 183°
2026-05-09 01:29 40.84232 -74.06157 9 ft 21 kts 183°
2026-05-09 01:29 40.84077 -74.06167 8 ft 21 kts 183°
2026-05-09 01:30 40.83957 -74.06177 10 ft 18 kts 183°
2026-05-09 01:30 40.83885 -74.06166 12 ft 6 kts 129°
2026-05-09 01:30 40.83882 -74.06155 11 ft 0 kts 105°
2026-05-09 01:30 40.83882 -74.06150 13 ft 0 kts 96°
2026-05-09 01:31 40.83882 -74.06139 11 ft 5 kts 90°
2026-05-09 01:32 40.83881 -74.06079 8 ft 7 kts 93°
2026-05-09 01:32 40.83908 -74.06035 7 ft 0 kts
2026-05-09 01:32 40.83913 -74.06034 7 ft 11 kts
2026-05-09 01:32 40.84268 -74.06009 9 ft 90 kts
2026-05-09 01:33 40.85135 -74.05945 38 ft 152 kts
2026-05-09 01:33 40.86311 -74.05844 489 ft 189 kts
2026-05-09 01:33 40.87667 -74.05486 1316 ft 211 kts 12°
2026-05-09 01:33 40.89163 -74.05606 2323 ft 229 kts 338°
2026-05-09 01:34 40.90367 -74.07125 2415 ft 256 kts 292°
2026-05-09 01:34 40.90727 -74.09511 2646 ft 272 kts 273°
2026-05-09 01:34 40.90881 -74.11945 3660 ft 261 kts 275°
2026-05-09 01:34 40.91083 -74.14329 4439 ft 262 kts 275°
2026-05-09 01:35 40.91278 -74.16722 5281 ft 250 kts 270°
2026-05-09 01:35 40.90878 -74.18809 6314 ft 244 kts 246°
2026-05-09 01:35 40.89637 -74.20671 5828 ft 294 kts 221°
2026-05-09 01:35 40.87762 -74.22004 5938 ft 322 kts 202°
2026-05-09 01:36 40.85467 -74.22516 6075 ft 346 kts 191°
2026-05-09 01:36 40.82985 -74.22764 6072 ft 368 kts 189°
2026-05-09 01:36 40.80378 -74.23048 6075 ft 384 kts 191°
2026-05-09 01:36 40.77674 -74.23567 6059 ft 399 kts 194°
2026-05-09 01:37 40.75023 -74.24138 6042 ft 378 kts 192°
2026-05-09 01:37 40.72461 -74.24516 6027 ft 356 kts 190°
2026-05-09 01:37 40.69937 -74.24927 6706 ft 371 kts 193°
2026-05-09 01:37 40.67448 -74.25432 9035 ft 366 kts 194°
2026-05-09 01:38 40.64863 -74.25884 10412 ft 381 kts 193°
2026-05-09 01:38 40.62293 -74.26743 11726 ft 382 kts 209°
2026-05-09 01:38 40.60097 -74.28685 13083 ft 382 kts 225°
2026-05-09 01:38 40.57891 -74.30763 14290 ft 403 kts 213°
2026-05-09 01:39 40.55201 -74.32008 15569 ft 420 kts 200°
2026-05-09 01:39 40.52212 -74.32376 16727 ft 445 kts 184°
2026-05-09 01:39 40.49014 -74.31982 17018 ft 482 kts 180°
2026-05-09 01:39 40.45581 -74.31472 17743 ft 496 kts 179°
2026-05-09 01:40 40.42139 -74.30923 19181 ft 506 kts 180°
2026-05-09 01:40 40.38588 -74.30433 20148 ft 516 kts 181°
2026-05-09 01:40 40.34986 -74.29970 21216 ft 527 kts 181°
2026-05-09 01:40 40.31287 -74.29429 22349 ft 538 kts 181°
2026-05-09 01:41 40.27492 -74.28861 22969 ft 564 kts 181°
2026-05-09 01:41 40.23479 -74.28340 22984 ft 595 kts 182°
2026-05-09 01:41 40.19236 -74.27782 23000 ft 630 kts 180°
2026-05-09 01:41 40.14755 -74.27175 22992 ft 661 kts 182°
2026-05-09 01:42 40.10247 -74.27258 22989 ft 625 kts 190°
2026-05-09 01:42 40.06087 -74.27801 22952 ft 577 kts 196°
2026-05-09 01:42 40.02283 -74.28816 22962 ft 550 kts 201°
2026-05-09 01:42 39.98607 -74.30232 22983 ft 550 kts 206°
2026-05-09 01:43 39.95078 -74.32037 22988 ft 539 kts 211°
2026-05-09 01:43 39.91732 -74.34215 22988 ft 537 kts 216°
2026-05-09 01:43 39.88567 -74.36723 22994 ft 528 kts 221°
2026-05-09 01:43 39.85628 -74.39486 23008 ft 528 kts 224°
2026-05-09 01:44 39.82657 -74.42354 22982 ft 523 kts 224°
2026-05-09 01:44 39.80006 -74.45488 22981 ft 520 kts 231°
2026-05-09 01:44 39.77490 -74.48835 22982 ft 517 kts 231°
2026-05-09 01:44 39.74939 -74.52154 22977 ft 520 kts 231°
2026-05-09 01:45 39.72407 -74.55491 22977 ft 517 kts 232°
2026-05-09 01:45 39.69912 -74.58874 22982 ft 519 kts 232°
2026-05-09 01:45 39.67387 -74.62221 22982 ft 518 kts 231°
2026-05-09 01:45 39.64831 -74.65523 22983 ft 520 kts 231°
2026-05-09 01:46 39.62305 -74.68861 22984 ft 517 kts 232°
2026-05-09 01:46 39.59818 -74.72202 22985 ft 513 kts 232°
2026-05-09 01:46 39.57302 -74.75503 22987 ft 517 kts 231°
2026-05-09 01:46 39.54804 -74.78722 22979 ft 502 kts 231°
2026-05-09 01:47 39.52314 -74.82035 23477 ft 518 kts 232°
2026-05-09 01:47 39.49817 -74.85378 25003 ft 518 kts 232°
2026-05-09 01:47 39.47241 -74.88698 26186 ft 526 kts 231°
2026-05-09 01:47 39.44633 -74.92057 27330 ft 532 kts 231°
2026-05-09 01:48 39.42043 -74.95501 28559 ft 536 kts 232°
2026-05-09 01:48 39.39424 -74.98962 29744 ft 542 kts 231°
2026-05-09 01:48 39.36729 -75.02424 30798 ft 548 kts 231°
2026-05-09 01:48 39.34023 -75.05923 31782 ft 553 kts 232°
2026-05-09 01:49 39.31323 -75.09488 32823 ft 557 kts 232°
2026-05-09 01:49 39.28497 -75.12982 33640 ft 570 kts 229°
2026-05-09 01:49 39.25521 -75.16345 34206 ft 579 kts 229°
2026-05-09 01:49 39.22553 -75.19873 35034 ft 580 kts 231°
2026-05-09 01:50 39.19593 -75.23443 35708 ft 587 kts 230°
2026-05-09 01:50 39.16529 -75.26972 36385 ft 593 kts 229°
2026-05-09 01:50 39.13400 -75.30484 37006 ft 599 kts 228°
2026-05-09 01:50 39.10040 -75.33772 37585 ft 612 kts 224°
2026-05-09 01:51 39.06446 -75.36786 38199 ft 622 kts 220°
2026-05-09 01:51 39.02608 -75.39482 38705 ft 635 kts 216°
2026-05-09 01:51 38.98522 -75.41839 39027 ft 650 kts 212°
2026-05-09 01:51 38.94213 -75.43802 39376 ft 664 kts 207°
2026-05-09 01:52 38.89706 -75.45348 39698 ft 679 kts 202°
2026-05-09 01:52 38.84996 -75.46420 40003 ft 693 kts 198°
2026-05-09 01:52 38.80163 -75.47096 40261 ft 702 kts 195°
2026-05-09 01:52 38.75284 -75.47755 40581 ft 705 kts 196°
2026-05-09 01:53 38.70388 -75.48465 40853 ft 709 kts 196°
2026-05-09 01:53 38.65463 -75.49145 41100 ft 715 kts 195°
2026-05-09 01:53 38.60554 -75.49768 41365 ft 719 kts 195°
2026-05-09 01:53 38.55565 -75.50432 41635 ft 722 kts 195°
2026-05-09 01:54 38.50566 -75.51150 41887 ft 725 kts 195°
2026-05-09 01:54 38.45568 -75.52032 42087 ft 721 kts 199°
2026-05-09 01:54 38.40704 -75.53416 42412 ft 715 kts 202°
2026-05-09 01:54 38.35953 -75.55241 42552 ft 711 kts 207°
2026-05-09 01:55 38.31352 -75.57502 42805 ft 707 kts 211°
2026-05-09 01:55 38.26928 -75.60185 42979 ft 703 kts 215°
2026-05-09 01:55 38.18757 -75.66580 43020 ft 664 kts 221°
2026-05-09 01:56 38.15006 -75.69831 43015 ft 640 kts 221°
2026-05-09 01:56 38.11389 -75.72943 43014 ft 615 kts 222°
2026-05-09 01:56 38.09084 -75.74946 43013 ft 599 kts 222°
2026-05-09 01:56 38.05712 -75.77890 43015 ft 577 kts 223°
2026-05-09 01:57 38.02462 -75.80705 42972 ft 555 kts 223°
2026-05-09 01:57 37.99327 -75.83398 43027 ft 533 kts 223°
2026-05-09 01:57 37.96328 -75.85983 43021 ft 510 kts 224°
2026-05-09 01:57 37.93458 -75.88467 43022 ft 488 kts 224°
2026-05-09 01:58 37.90700 -75.90848 43024 ft 470 kts 224°
2026-05-09 01:58 37.88011 -75.93170 43044 ft 463 kts 224°
2026-05-09 01:58 37.82728 -75.97721 43027 ft 459 kts 224°
2026-05-09 01:59 37.77437 -76.02257 43041 ft 459 kts 225°
2026-05-09 01:59 37.72154 -76.06789 43038 ft 459 kts 225°
2026-05-09 02:00 37.66852 -76.11321 43037 ft 460 kts 225°
2026-05-09 02:00 37.61553 -76.15836 43044 ft 461 kts 224°
2026-05-09 02:01 37.55862 -76.19788 43052 ft 468 kts 219°
2026-05-09 02:01 37.50108 -76.23646 43046 ft 469 kts 219°
2026-05-09 02:02 37.44319 -76.27477 43050 ft 470 kts 219°
2026-05-09 02:02 37.38582 -76.31291 43006 ft 469 kts 219°
2026-05-09 02:03 37.32814 -76.35106 43050 ft 468 kts 219°
2026-05-09 02:03 37.27049 -76.38922 43046 ft 469 kts 219°
2026-05-09 02:04 37.21267 -76.42734 43066 ft 468 kts 219°
2026-05-09 02:04 37.15494 -76.46539 43067 ft 467 kts 219°
2026-05-09 02:05 37.09747 -76.50319 43057 ft 467 kts 220°
2026-05-09 02:05 37.03972 -76.54112 43072 ft 469 kts 219°
2026-05-09 02:06 36.98183 -76.57902 43048 ft 468 kts 219°
2026-05-09 02:07 36.89538 -76.63547 43075 ft 467 kts 219°
2026-05-09 02:07 36.83816 -76.67295 43081 ft 468 kts 219°
2026-05-09 02:08 36.78048 -76.71047 43088 ft 467 kts 219°
2026-05-09 02:08 36.72275 -76.74806 43056 ft 468 kts 220°
2026-05-09 02:09 36.66521 -76.78537 43084 ft 466 kts 220°
2026-05-09 02:09 36.60751 -76.82282 43077 ft 467 kts 220°
2026-05-09 02:10 36.54982 -76.86010 43051 ft 466 kts 220°
2026-05-09 02:10 36.49220 -76.89736 43058 ft 467 kts 220°
2026-05-09 02:11 36.43461 -76.93446 43062 ft 465 kts 220°
2026-05-09 02:11 36.37698 -76.97159 43072 ft 467 kts 220°
2026-05-09 02:12 36.31940 -77.00856 43078 ft 466 kts 220°
2026-05-09 02:12 36.26183 -77.04553 43097 ft 465 kts 220°
2026-05-09 02:13 36.20481 -77.08205 43089 ft 464 kts 220°
2026-05-09 02:13 36.14726 -77.11885 43086 ft 465 kts 220°
2026-05-09 02:14 36.08979 -77.15552 43080 ft 464 kts 220°
2026-05-09 02:14 36.03223 -77.19225 43080 ft 467 kts 220°
2026-05-09 02:15 35.97389 -77.22938 43080 ft 473 kts 220°
2026-05-09 02:15 35.91800 -77.26919 43080 ft 453 kts 227°
2026-05-09 02:16 35.86870 -77.31596 43095 ft 447 kts 230°
2026-05-09 02:16 35.81943 -77.36323 43065 ft 448 kts 230°
2026-05-09 02:17 35.77006 -77.41099 43078 ft 453 kts 230°
2026-05-09 02:17 35.72035 -77.45863 43081 ft 451 kts 230°
2026-05-09 02:18 35.67114 -77.50602 43082 ft 453 kts 230°
2026-05-09 02:18 35.62139 -77.55363 43081 ft 452 kts 230°
2026-05-09 02:19 35.57167 -77.60132 43091 ft 458 kts 230°
2026-05-09 02:19 35.52128 -77.64935 43087 ft 456 kts 230°
2026-05-09 02:20 35.47138 -77.69704 43086 ft 455 kts 230°
2026-05-09 02:20 35.42122 -77.74479 43092 ft 456 kts 230°
2026-05-09 02:21 35.37116 -77.79240 43089 ft 455 kts 230°
2026-05-09 02:21 35.32101 -77.84003 43058 ft 456 kts 230°
2026-05-09 02:22 35.27108 -77.88733 43060 ft 455 kts 230°
2026-05-09 02:22 35.22098 -77.93477 43059 ft 456 kts 230°
2026-05-09 02:23 35.17077 -77.98218 43060 ft 454 kts 230°
2026-05-09 02:23 35.12086 -78.02929 43088 ft 455 kts 230°
2026-05-09 02:24 35.07036 -78.07684 43097 ft 457 kts 229°
2026-05-09 02:24 35.02011 -78.12408 43099 ft 456 kts 230°
2026-05-09 02:25 34.97005 -78.17110 43098 ft 457 kts 230°
2026-05-09 02:25 34.91971 -78.21827 43037 ft 456 kts 229°
2026-05-09 02:26 34.86912 -78.26570 43097 ft 462 kts 229°
2026-05-09 02:26 34.81820 -78.31314 43093 ft 459 kts 229°
2026-05-09 02:27 34.76752 -78.36053 43083 ft 461 kts 229°
2026-05-09 02:27 34.71659 -78.40789 43083 ft 460 kts 229°
2026-05-09 02:28 34.66583 -78.45512 43092 ft 460 kts 229°
2026-05-09 02:28 34.61487 -78.50245 43098 ft 462 kts 229°
2026-05-09 02:29 34.56384 -78.54972 43095 ft 460 kts 229°
2026-05-09 02:29 34.51279 -78.59701 43096 ft 462 kts 229°
2026-05-09 02:30 34.46171 -78.64417 43072 ft 461 kts 229°
2026-05-09 02:30 34.41067 -78.69132 43092 ft 464 kts 229°
2026-05-09 02:31 34.35748 -78.73604 43108 ft 464 kts 226°
2026-05-09 02:31 34.30448 -78.78068 43057 ft 466 kts 226°
2026-05-09 02:32 34.25093 -78.82505 43067 ft 465 kts 226°
2026-05-09 02:32 34.19804 -78.86917 43064 ft 465 kts 226°
2026-05-09 02:33 34.14439 -78.91375 43060 ft 469 kts 226°
2026-05-09 02:33 34.09074 -78.95832 43059 ft 467 kts 226°
2026-05-09 02:34 34.03714 -79.00281 43071 ft 468 kts 226°
2026-05-09 02:34 33.98349 -79.04720 43027 ft 467 kts 226°
2026-05-09 02:35 33.92979 -79.09166 43090 ft 468 kts 226°
2026-05-09 02:35 33.87652 -79.13558 43089 ft 466 kts 226°
2026-05-09 02:36 33.82259 -79.18009 43089 ft 468 kts 226°
2026-05-09 02:36 33.76921 -79.22398 43087 ft 467 kts 226°
2026-05-09 02:37 33.71564 -79.26802 43088 ft 466 kts 226°
2026-05-09 02:37 33.66198 -79.31214 43066 ft 468 kts 226°
2026-05-09 02:38 33.60937 -79.35740 43064 ft 464 kts 227°
2026-05-09 02:38 33.55633 -79.40221 43072 ft 467 kts 226°
2026-05-09 02:39 33.50340 -79.44714 43071 ft 465 kts 227°
2026-05-09 02:39 33.45066 -79.49175 43074 ft 465 kts 226°
2026-05-09 02:40 33.40664 -79.52897 43071 ft 466 kts 226°
2026-05-09 02:40 33.34527 -79.58074 43068 ft 464 kts 226°
2026-05-09 02:41 33.29233 -79.62536 43068 ft 465 kts 226°
2026-05-09 02:41 33.24833 -79.66234 43023 ft 465 kts 226°
2026-05-09 02:42 33.19521 -79.70707 43075 ft 470 kts 226°
2026-05-09 02:42 33.14171 -79.75180 43071 ft 468 kts 226°
2026-05-09 02:43 33.08839 -79.79657 43078 ft 469 kts 226°
2026-05-09 02:43 33.03499 -79.84111 43073 ft 465 kts 226°
2026-05-09 02:44 32.98217 -79.88532 43065 ft 465 kts 226°
2026-05-09 02:44 32.92903 -79.92958 43062 ft 466 kts 226°
2026-05-09 02:45 32.87605 -79.97371 43059 ft 465 kts 226°
2026-05-09 02:45 32.82329 -80.01757 43061 ft 466 kts 226°
2026-05-09 02:46 32.77016 -80.06166 43080 ft 465 kts 226°
2026-05-09 02:46 32.71695 -80.10584 43086 ft 471 kts 226°
2026-05-09 02:47 32.66307 -80.15030 43081 ft 470 kts 226°
2026-05-09 02:47 32.60960 -80.19455 43079 ft 467 kts 226°
2026-05-09 02:48 32.55642 -80.23842 43065 ft 466 kts 226°
2026-05-09 02:48 32.50187 -80.28020 43023 ft 477 kts 219°
2026-05-09 02:49 32.44292 -80.31745 43062 ft 483 kts 219°
2026-05-09 02:49 32.38337 -80.35513 43054 ft 480 kts 219°
2026-05-09 02:50 32.32508 -80.39195 43042 ft 477 kts 219°
2026-05-09 02:50 32.26635 -80.42903 43051 ft 479 kts 219°
2026-05-09 02:51 32.20751 -80.46607 43063 ft 481 kts 219°
2026-05-09 02:51 32.14828 -80.50330 43066 ft 482 kts 219°
2026-05-09 02:52 32.08921 -80.54042 43070 ft 481 kts 219°
2026-05-09 02:52 32.03006 -80.57747 43062 ft 480 kts 219°
2026-05-09 02:53 31.97118 -80.61438 43060 ft 480 kts 218°
2026-05-09 02:53 31.91179 -80.65152 43070 ft 484 kts 218°
2026-05-09 02:54 31.85245 -80.68851 43062 ft 482 kts 218°
2026-05-09 02:54 31.79311 -80.72554 43062 ft 483 kts 218°
2026-05-09 02:55 31.73374 -80.76247 43018 ft 482 kts 218°
2026-05-09 02:55 31.67484 -80.79910 43052 ft 483 kts 218°
2026-05-09 02:56 31.61541 -80.83595 43058 ft 482 kts 218°
2026-05-09 02:56 31.55600 -80.87280 43051 ft 482 kts 218°
2026-05-09 02:57 31.49656 -80.90957 43061 ft 483 kts 218°
2026-05-09 02:57 31.43724 -80.94619 43058 ft 479 kts 218°
2026-05-09 02:58 31.37837 -80.98258 43051 ft 479 kts 218°
2026-05-09 02:58 31.31936 -81.01887 43054 ft 480 kts 217°
2026-05-09 02:59 31.25609 -81.04765 42986 ft 497 kts 206°
2026-05-09 02:59 31.18718 -81.06186 42909 ft 516 kts 195°
2026-05-09 03:00 31.11424 -81.06385 42894 ft 521 kts 192°
2026-05-09 03:00 31.04217 -81.06556 42887 ft 522 kts 192°
2026-05-09 03:01 30.96944 -81.06692 42900 ft 522 kts 192°
2026-05-09 03:01 30.89681 -81.06849 42855 ft 519 kts 192°
2026-05-09 03:01 30.86098 -81.06913 42067 ft 516 kts 192°
2026-05-09 03:02 30.82516 -81.06990 41400 ft 510 kts 192°
2026-05-09 03:02 30.78993 -81.07061 40833 ft 503 kts 192°
2026-05-09 03:02 30.75510 -81.07133 40200 ft 498 kts 192°
2026-05-09 03:02 30.72065 -81.07204 39654 ft 492 kts 192°
2026-05-09 03:03 30.68650 -81.07274 39085 ft 487 kts 193°
2026-05-09 03:03 30.65286 -81.07344 38478 ft 482 kts 192°
2026-05-09 03:03 30.61962 -81.07429 37889 ft 472 kts 194°
2026-05-09 03:03 30.58703 -81.07631 37280 ft 465 kts 194°
2026-05-09 03:04 30.55478 -81.07840 36710 ft 460 kts 194°
2026-05-09 03:04 30.52296 -81.08027 36160 ft 455 kts 193°
2026-05-09 03:04 30.49199 -81.08206 35617 ft 450 kts 193°
2026-05-09 03:04 30.46053 -81.08398 35092 ft 444 kts 193°
2026-05-09 03:05 30.42982 -81.08586 34565 ft 439 kts 193°
2026-05-09 03:05 30.39989 -81.08765 34055 ft 435 kts 192°
2026-05-09 03:05 30.36978 -81.08945 33456 ft 431 kts 192°
2026-05-09 03:05 30.33998 -81.09125 32837 ft 427 kts 192°
2026-05-09 03:06 30.31042 -81.09302 32238 ft 424 kts 192°
2026-05-09 03:06 30.28102 -81.09480 31647 ft 421 kts 192°
2026-05-09 03:06 30.25193 -81.09653 31071 ft 418 kts 192°
2026-05-09 03:06 30.22301 -81.09827 30446 ft 416 kts 192°
2026-05-09 03:07 30.19350 -81.10016 28680 ft 436 kts 192°
2026-05-09 03:07 30.16246 -81.10210 27463 ft 449 kts 191°
2026-05-09 03:07 30.13154 -81.10363 26955 ft 440 kts 191°
2026-05-09 03:07 30.10107 -81.10542 26231 ft 437 kts 192°
2026-05-09 03:08 30.07080 -81.10742 25544 ft 433 kts 192°
2026-05-09 03:08 30.04082 -81.10922 24931 ft 429 kts 191°
2026-05-09 03:08 30.01118 -81.11089 24332 ft 425 kts 191°
2026-05-09 03:08 29.98198 -81.11261 24065 ft 411 kts 192°
2026-05-09 03:09 29.95413 -81.11419 24053 ft 391 kts 192°
2026-05-09 03:09 29.92763 -81.11577 24043 ft 372 kts 193°
2026-05-09 03:09 29.90247 -81.11729 24039 ft 354 kts 193°
2026-05-09 03:09 29.87848 -81.11872 24036 ft 336 kts 194°
2026-05-09 03:10 29.85577 -81.12006 24031 ft 319 kts 194°
2026-05-09 03:10 29.83399 -81.12021 24022 ft 310 kts 187°
2026-05-09 03:10 29.81289 -81.11660 24003 ft 302 kts 180°
2026-05-09 03:10 29.79304 -81.10975 24023 ft 299 kts 172°
2026-05-09 03:11 29.77333 -81.10033 24062 ft 322 kts 169°
2026-05-09 03:11 29.75177 -81.09009 24076 ft 347 kts 168°
2026-05-09 03:11 29.72858 -81.07880 24080 ft 376 kts 167°
2026-05-09 03:11 29.70367 -81.06640 24081 ft 405 kts 166°
2026-05-09 03:12 29.67696 -81.05323 24068 ft 423 kts 166°
2026-05-09 03:12 29.65027 -81.03995 24043 ft 414 kts 166°
2026-05-09 03:12 29.62357 -81.02690 24039 ft 418 kts 166°
2026-05-09 03:12 29.59681 -81.01395 24037 ft 415 kts 166°
2026-05-09 03:13 29.54342 -80.98778 24037 ft 417 kts 166°
2026-05-09 03:13 29.51677 -80.97474 24004 ft 417 kts 166°
2026-05-09 03:13 29.49026 -80.96181 24030 ft 411 kts 166°
2026-05-09 03:14 29.46416 -80.94912 24026 ft 415 kts 166°
2026-05-09 03:14 29.43763 -80.93619 24028 ft 412 kts 166°
2026-05-09 03:14 29.41121 -80.92328 24028 ft 415 kts 166°
2026-05-09 03:14 29.38457 -80.91034 24028 ft 414 kts 166°
2026-05-09 03:15 29.35810 -80.89743 24028 ft 413 kts 166°
2026-05-09 03:15 29.33156 -80.88455 24023 ft 415 kts 166°
2026-05-09 03:15 29.30506 -80.87165 24034 ft 413 kts 166°
2026-05-09 03:15 29.27856 -80.85877 24041 ft 415 kts 166°
2026-05-09 03:16 29.25202 -80.84590 24040 ft 414 kts 166°
2026-05-09 03:16 29.22551 -80.83301 24032 ft 414 kts 166°
2026-05-09 03:16 29.19900 -80.82017 24028 ft 415 kts 165°
2026-05-09 03:16 29.17243 -80.80728 24027 ft 414 kts 165°
2026-05-09 03:17 29.14581 -80.79438 24033 ft 415 kts 165°
2026-05-09 03:17 29.11921 -80.78152 24030 ft 415 kts 165°
2026-05-09 03:17 29.09273 -80.76868 24029 ft 414 kts 165°
2026-05-09 03:17 29.06610 -80.75581 24029 ft 415 kts 165°
2026-05-09 03:18 29.03943 -80.74292 24024 ft 415 kts 165°
2026-05-09 03:18 29.01326 -80.73026 24022 ft 414 kts 165°
2026-05-09 03:18 28.98673 -80.71748 24021 ft 415 kts 165°
2026-05-09 03:18 28.96003 -80.70486 24020 ft 413 kts 167°
2026-05-09 03:19 28.93331 -80.69302 24020 ft 413 kts 167°
2026-05-09 03:19 28.90639 -80.68096 24014 ft 417 kts 166°
2026-05-09 03:19 28.87918 -80.66873 24016 ft 419 kts 166°
2026-05-09 03:19 28.85221 -80.65659 24010 ft 417 kts 166°
2026-05-09 03:20 28.82500 -80.64448 24014 ft 422 kts 166°
2026-05-09 03:20 28.79680 -80.63206 24031 ft 448 kts 166°
2026-05-09 03:20 28.76776 -80.61901 24007 ft 443 kts 166°
2026-05-09 03:20 28.73911 -80.60598 24003 ft 445 kts 166°
2026-05-09 03:21 28.71023 -80.59320 23999 ft 443 kts 166°
2026-05-09 03:21 28.68143 -80.58044 23987 ft 445 kts 166°
2026-05-09 03:21 28.65298 -80.56775 23989 ft 444 kts 166°
2026-05-09 03:21 28.62385 -80.55470 23973 ft 444 kts 166°
2026-05-09 03:22 28.59526 -80.54204 23976 ft 447 kts 166°
2026-05-09 03:22 28.56639 -80.52920 23974 ft 445 kts 165°
2026-05-09 03:22 28.53746 -80.51632 23976 ft 447 kts 166°
2026-05-09 03:22 28.50848 -80.50344 23975 ft 445 kts 165°
2026-05-09 03:23 28.47956 -80.49061 23973 ft 447 kts 166°
2026-05-09 03:23 28.45060 -80.47778 23975 ft 446 kts 166°
2026-05-09 03:23 28.42170 -80.46493 23974 ft 447 kts 166°
2026-05-09 03:23 28.39267 -80.45209 23974 ft 447 kts 166°
2026-05-09 03:24 28.36381 -80.43928 23976 ft 446 kts 166°
2026-05-09 03:24 28.33475 -80.42644 23973 ft 448 kts 166°
2026-05-09 03:24 28.30586 -80.41365 23986 ft 447 kts 165°
2026-05-09 03:24 28.27673 -80.40078 23988 ft 449 kts 165°
2026-05-09 03:25 28.24770 -80.38794 23981 ft 447 kts 165°
2026-05-09 03:25 28.21858 -80.37508 23983 ft 449 kts 165°
2026-05-09 03:25 28.18987 -80.36241 23989 ft 447 kts 165°
2026-05-09 03:25 28.16085 -80.34960 23987 ft 449 kts 165°
2026-05-09 03:26 28.13171 -80.33677 23992 ft 447 kts 165°
2026-05-09 03:26 28.10273 -80.32398 23999 ft 449 kts 165°
2026-05-09 03:26 28.07339 -80.31202 24012 ft 446 kts 168°
2026-05-09 03:26 28.04408 -80.30072 24007 ft 446 kts 168°
2026-05-09 03:27 28.01458 -80.28920 24009 ft 447 kts 167°
2026-05-09 03:27 27.99512 -80.28151 24014 ft 447 kts 167°
2026-05-09 03:27 27.96563 -80.26995 24016 ft 448 kts 167°
2026-05-09 03:27 27.93618 -80.25847 24018 ft 447 kts 167°
2026-05-09 03:28 27.90669 -80.24698 24019 ft 449 kts 167°
2026-05-09 03:28 27.87725 -80.23548 24019 ft 447 kts 167°
2026-05-09 03:28 27.84780 -80.22398 24018 ft 449 kts 167°
2026-05-09 03:28 27.81829 -80.21251 24020 ft 447 kts 167°
2026-05-09 03:29 27.78882 -80.20102 24019 ft 448 kts 167°
2026-05-09 03:29 27.75939 -80.18958 24021 ft 448 kts 167°
2026-05-09 03:29 27.72994 -80.17810 24019 ft 448 kts 167°
2026-05-09 03:29 27.70044 -80.16665 24017 ft 449 kts 167°
2026-05-09 03:30 27.67087 -80.15516 24023 ft 449 kts 167°
2026-05-09 03:30 27.64134 -80.14369 24023 ft 450 kts 167°
2026-05-09 03:30 27.61183 -80.13202 24021 ft 449 kts 166°
2026-05-09 03:30 27.58247 -80.11971 24021 ft 451 kts 166°
2026-05-09 03:31 27.55322 -80.10774 24022 ft 439 kts 166°
2026-05-09 03:31 27.52511 -80.09618 24013 ft 422 kts 166°
2026-05-09 03:31 27.49803 -80.08504 24015 ft 419 kts 166°
2026-05-09 03:31 27.47041 -80.07376 24016 ft 422 kts 166°
2026-05-09 03:32 27.44293 -80.06240 24015 ft 419 kts 166°
2026-05-09 03:32 27.41538 -80.05106 24019 ft 422 kts 166°
2026-05-09 03:32 27.38798 -80.03984 24017 ft 418 kts 167°
2026-05-09 03:32 27.36002 -80.03088 24023 ft 417 kts 172°
2026-05-09 03:33 27.33194 -80.02251 24025 ft 416 kts 171°
2026-05-09 03:33 27.30403 -80.01373 24026 ft 417 kts 171°
2026-05-09 03:33 27.27600 -80.00506 24029 ft 417 kts 171°
2026-05-09 03:33 27.24811 -79.99622 24024 ft 418 kts 169°
2026-05-09 03:34 27.22038 -79.98609 24027 ft 420 kts 168°
2026-05-09 03:34 27.19263 -79.97598 24028 ft 418 kts 169°
2026-05-09 03:34 27.16485 -79.96602 24026 ft 418 kts 169°
2026-05-09 03:34 27.13735 -79.95613 23565 ft 415 kts 168°
2026-05-09 03:35 27.11020 -79.94633 22901 ft 413 kts 168°
2026-05-09 03:35 27.08307 -79.93650 22382 ft 407 kts 168°
2026-05-09 03:35 27.05629 -79.92634 21828 ft 404 kts 166°
2026-05-09 03:35 27.02994 -79.91557 21304 ft 400 kts 166°
2026-05-09 03:36 27.00393 -79.90508 20793 ft 395 kts 166°
2026-05-09 03:36 26.97825 -79.89480 20296 ft 391 kts 166°
2026-05-09 03:36 26.95276 -79.88451 19796 ft 387 kts 165°
2026-05-09 03:36 26.92759 -79.87435 19312 ft 382 kts 165°
2026-05-09 03:37 26.90272 -79.86433 18834 ft 378 kts 165°
2026-05-09 03:37 26.87811 -79.85442 18361 ft 374 kts 165°
2026-05-09 03:37 26.85371 -79.84461 17819 ft 370 kts 165°
2026-05-09 03:37 26.82964 -79.83491 17277 ft 366 kts 165°
2026-05-09 03:38 26.80581 -79.82534 16750 ft 362 kts 164°
2026-05-09 03:38 26.78219 -79.81583 16213 ft 359 kts 163°
2026-05-09 03:38 26.75881 -79.80643 15777 ft 352 kts 163°
2026-05-09 03:38 26.73638 -79.79748 15762 ft 333 kts 165°
2026-05-09 03:39 26.71407 -79.79205 15248 ft 327 kts 177°
2026-05-09 03:39 26.69152 -79.79162 14783 ft 321 kts 187°
2026-05-09 03:39 26.66974 -79.79576 14322 ft 316 kts 197°
2026-05-09 03:39 26.64935 -79.80366 13896 ft 313 kts 202°
2026-05-09 03:40 26.62895 -79.81201 13404 ft 311 kts 201°
2026-05-09 03:40 26.60870 -79.82008 12920 ft 308 kts 201°
2026-05-09 03:40 26.58842 -79.82839 12447 ft 305 kts 201°
2026-05-09 03:40 26.56881 -79.83643 11991 ft 303 kts 201°
2026-05-09 03:41 26.54915 -79.84465 11533 ft 300 kts 203°
2026-05-09 03:41 26.52998 -79.85380 11070 ft 298 kts 204°
2026-05-09 03:41 26.51097 -79.86278 10640 ft 296 kts 203°
2026-05-09 03:41 26.49201 -79.87164 10182 ft 294 kts 203°
2026-05-09 03:42 26.47317 -79.88048 9747 ft 292 kts 203°
2026-05-09 03:42 26.45441 -79.88928 9229 ft 292 kts 203°
2026-05-09 03:42 26.43572 -79.89808 8735 ft 292 kts 203°
2026-05-09 03:42 26.41700 -79.90685 8256 ft 291 kts 203°
2026-05-09 03:43 26.39847 -79.91555 7980 ft 283 kts 203°
2026-05-09 03:43 26.38103 -79.92403 7968 ft 265 kts 207°
2026-05-09 03:43 26.36568 -79.93415 7968 ft 247 kts 211°
2026-05-09 03:43 26.35124 -79.94339 7963 ft 230 kts 209°
2026-05-09 03:44 26.33780 -79.95189 7961 ft 214 kts 210°
2026-05-09 03:44 26.32540 -79.95987 7952 ft 198 kts 210°
2026-05-09 03:44 26.31398 -79.96720 7940 ft 184 kts 210°
2026-05-09 03:44 26.30248 -79.97460 8021 ft 212 kts 210°
2026-05-09 03:45 26.28826 -79.98370 8220 ft 258 kts 210°
2026-05-09 03:45 26.27167 -79.99437 8788 ft 290 kts 210°
2026-05-09 03:45 26.25416 -80.00559 9173 ft 288 kts 210°
2026-05-09 03:45 26.23687 -80.01673 9149 ft 287 kts 210°
2026-05-09 03:46 26.21954 -80.02786 9052 ft 288 kts 210°
2026-05-09 03:46 26.20232 -80.03922 8956 ft 288 kts 213°
2026-05-09 03:46 26.18748 -80.05413 8848 ft 289 kts 228°
2026-05-09 03:46 26.17591 -80.07243 8762 ft 290 kts 240°
2026-05-09 03:47 26.16825 -80.09327 8667 ft 291 kts 251°
2026-05-09 03:47 26.16192 -80.11462 8593 ft 291 kts 250°
2026-05-09 03:47 26.15535 -80.13586 8521 ft 291 kts 250°
2026-05-09 03:47 26.15058 -80.15782 8425 ft 293 kts 263°
2026-05-09 03:48 26.15033 -80.18045 8397 ft 288 kts 269°
2026-05-09 03:48 26.15046 -80.20209 8374 ft 271 kts 268°
2026-05-09 03:48 26.15046 -80.22227 8330 ft 257 kts 269°
2026-05-09 03:48 26.15057 -80.24164 8276 ft 246 kts 269°
2026-05-09 03:49 26.15065 -80.26057 8240 ft 243 kts 269°
2026-05-09 03:49 26.15075 -80.27929 8222 ft 242 kts 269°
2026-05-09 03:49 26.15081 -80.29802 8215 ft 241 kts 268°
2026-05-09 03:49 26.15089 -80.31671 8209 ft 241 kts 269°
2026-05-09 03:50 26.15096 -80.33514 7944 ft 239 kts 269°
2026-05-09 03:50 26.15102 -80.35372 7584 ft 240 kts 269°
2026-05-09 03:50 26.15111 -80.37226 7279 ft 239 kts 269°
2026-05-09 03:50 26.14816 -80.39025 6859 ft 239 kts 242°
2026-05-09 03:51 26.13714 -80.40357 6501 ft 236 kts 209°
2026-05-09 03:51 26.12162 -80.40842 6154 ft 232 kts 184°
2026-05-09 03:51 26.10605 -80.40975 5906 ft 219 kts 187°
2026-05-09 03:51 26.09078 -80.41389 5122 ft 234 kts 198°
2026-05-09 03:52 26.07547 -80.41992 4659 ft 231 kts 198°
2026-05-09 03:52 26.06025 -80.42547 4177 ft 230 kts 196°
2026-05-09 03:52 26.04505 -80.43078 3719 ft 227 kts 196°
2026-05-09 03:52 26.03010 -80.43606 3270 ft 225 kts 196°
2026-05-09 03:53 26.01527 -80.44132 2813 ft 222 kts 195°
2026-05-09 03:53 26.00061 -80.44651 2377 ft 219 kts 195°
2026-05-09 03:53 25.98617 -80.45164 1935 ft 217 kts 195°
2026-05-09 03:53 25.97186 -80.45670 1585 ft 215 kts 195°
2026-05-09 03:54 25.95773 -80.46171 1590 ft 214 kts 195°
2026-05-09 03:54 25.94347 -80.46674 1597 ft 213 kts 195°
2026-05-09 03:54 25.92931 -80.47175 1599 ft 216 kts 195°
2026-05-09 03:54 25.91508 -80.47681 1597 ft 214 kts 195°
2026-05-09 03:55 25.90062 -80.47997 1552 ft 212 kts 175°
2026-05-09 03:55 25.88775 -80.47403 1569 ft 199 kts 138°
2026-05-09 03:55 25.88126 -80.46178 1577 ft 174 kts 109°
2026-05-09 03:55 25.87941 -80.44884 1563 ft 169 kts 89°
2026-05-09 03:56 25.88230 -80.43612 1589 ft 174 kts 68°
2026-05-09 03:56 25.88825 -80.42438 1599 ft 173 kts 64°
2026-05-09 03:56 25.89335 -80.41305 1618 ft 149 kts 67°
2026-05-09 03:56 25.89739 -80.40376 1496 ft 122 kts 68°
2026-05-09 03:57 25.90092 -80.39534 1099 ft 118 kts 69°
2026-05-09 03:57 25.90381 -80.38714 947 ft 116 kts 73°
2026-05-09 03:57 25.90619 -80.37831 864 ft 111 kts 76°
2026-05-09 03:57 25.90780 -80.36930 865 ft 124 kts 82°
2026-05-09 03:58 25.90910 -80.36000 934 ft 118 kts 84°
2026-05-09 03:58 25.90985 -80.35087 925 ft 119 kts 86°
2026-05-09 03:58 25.91026 -80.34153 913 ft 123 kts 90°
2026-05-09 03:58 25.91060 -80.33240 792 ft 115 kts 89°
2026-05-09 03:59 25.91106 -80.32328 679 ft 122 kts 88°
2026-05-09 03:59 25.91138 -80.31380 570 ft 120 kts 88°
2026-05-09 03:59 25.91195 -80.30458 366 ft 130 kts 87°
2026-05-09 03:59 25.91245 -80.29477 181 ft 119 kts 87°
2026-05-09 04:00 25.91281 -80.28605 16 ft 103 kts 88°
2026-05-09 04:00 25.91311 -80.27925 8 ft 64 kts 86°
2026-05-09 04:00 25.91303 -80.27655 12 ft 13 kts 135°
2026-05-09 04:00 25.91248 -80.27648 12 ft 8 kts 179°
2026-05-09 04:01 25.91227 -80.27647 12 ft 0 kts 178°
2026-05-09 04:02 25.91224 -80.27647 21 ft 1 kts 178°
2026-05-09 04:02 25.91200 -80.27636 12 ft 6 kts 143°
2026-05-09 04:02 25.91193 -80.27631 12 ft 1 kts 143°
2026-05-09 04:02 25.91168 -80.27617 12 ft 7 kts 158°
2026-05-09 04:03 25.91137 -80.27562 12 ft 12 kts 95°
2026-05-09 04:03 25.91142 -80.27449 13 ft 17 kts 86°
2026-05-09 04:03 25.91141 -80.27335 16 ft 14 kts 115°
2026-05-09 04:03 25.91101 -80.27325 15 ft 4 kts 207°
2026-05-09 04:04 25.91055 -80.27358 16 ft 10 kts 216°
2026-05-09 04:04 25.91035 -80.27396 16 ft 5 kts 284°
2026-05-09 04:04 25.91044 -80.27411 14 ft 1 kts 304°
2026-05-09 04:04 25.91045 -80.27412 14 ft 0 kts 304°